Weather History for Orange, MA

Change the Weather History Date:

Sunday, November 20, 2011

  Actual Average Record
Temperature  
Mean Temperature 54 °F -  
Max Temperature 62 °F 43 °F 63 °F (2003)
Min Temperature 45 °F 25 °F 15 °F (1997)
Degree Days  
Heating Degree Days 12    
Growing Degree Days 4 (Base 50)    
Moisture  
Dew Point 40 °F    
Average Humidity 64    
Maximum Humidity 83    
Minimum Humidity 48    
Precipitation  
Precipitation 0.00 in - - ()
Sea Level Pressure  
Sea Level Pressure 30.06 in    
Wind  
Wind Speed 9 mph (SSW)    
Max Wind Speed 14 mph    
Max Gust Speed 20 mph    
Visibility 10 miles    
Events      
Averages and records for this station are not official NWS values.
T = Trace of Precipitation, MM = Missing Value Source: NWS Daily Summary

Daily Weather History Graph

Daily Weather History Graph

Search for Another Location

Airport:

Trip Planner

Search our weather history database for the weather conditions in past years. The results will help you decide how hot, cold, wet, or windy it might be!

Date:

Astronomy

Nov. 20, 2011 Rise Set
Actual Time 6:46 AM EST 4:22 PM EST
Civil Twilight 6:15 AM EST 4:53 PM EST
Nautical Twilight 5:41 AM EST 5:27 PM EST
Astronomical Twilight 5:07 AM EST 6:01 PM EST
Moon 1:05 AM EST (11/20) 1:15 PM EST (11/20)
Length of Visible Light 10h 37m
Length of Day
9h 36m
Waning Crescent, 27% of the Moon is Illuminated
Nov 20
Waning Crescent
Nov 25
New
Dec 2
First Quarter
Dec 10
Full
Dec 17
Last Quarter

Hourly Weather History & Observations

Time (EST) Temp. Windchill Dew Point Humidity Pressure Visibility Wind Dir Wind Speed Gust Speed Precip Events Conditions
12:52 AM 45.0 °F 40.1 °F 35.1 °F 68% 30.18 in 10.0 mi South 9.2 mph - N/A   Mostly Cloudy
1:52 AM 46.0 °F 40.2 °F 35.1 °F 66% 30.16 in 10.0 mi South 12.7 mph - N/A   Mostly Cloudy
2:52 AM 46.0 °F 41.9 °F 35.1 °F 66% 30.14 in 10.0 mi South 8.1 mph 18.4 mph N/A   Overcast
3:52 AM 46.0 °F 39.9 °F 36.0 °F 68% 30.12 in 10.0 mi South 13.8 mph - N/A   Overcast
4:52 AM 46.0 °F 41.0 °F 37.0 °F 71% 30.09 in 10.0 mi South 10.4 mph - N/A   Overcast
5:52 AM 46.0 °F 40.6 °F 37.9 °F 73% 30.08 in 10.0 mi South 11.5 mph - N/A   Overcast
6:52 AM 45.0 °F 39.7 °F 37.9 °F 76% 30.08 in 10.0 mi South 10.4 mph - N/A   Scattered Clouds
7:52 AM 46.9 °F - 37.9 °F 71% 30.06 in 10.0 mi South 9.2 mph - N/A   Scattered Clouds
8:52 AM 48.0 °F - 37.9 °F 68% 30.06 in 10.0 mi South 6.9 mph - N/A   Overcast
9:52 AM 51.1 °F - 37.9 °F 61% 30.05 in 10.0 mi South 9.2 mph - N/A   Partly Cloudy
11:52 AM 57.9 °F - 39.9 °F 51% 30.00 in 10.0 mi South 10.4 mph - N/A   Clear
12:52 PM 60.1 °F - 41.0 °F 49% 29.99 in 10.0 mi SSW 10.4 mph - N/A   Mostly Cloudy
1:52 PM 62.1 °F - 42.1 °F 48% 29.97 in 10.0 mi SSW 9.2 mph - N/A   Clear
2:52 PM 62.1 °F - 43.0 °F 50% 29.97 in 10.0 mi SSW 10.4 mph - N/A   Clear
3:52 PM 60.1 °F - 44.1 °F 55% 29.99 in 10.0 mi South 4.6 mph - N/A   Clear
4:52 PM 55.9 °F - 45.0 °F 67% 30.01 in 10.0 mi SSW 8.1 mph - N/A   Mostly Cloudy
5:52 PM 55.0 °F - 44.1 °F 67% 30.03 in 10.0 mi SSW 5.8 mph - N/A   Scattered Clouds
6:52 PM 51.1 °F - 45.0 °F 80% 30.04 in 10.0 mi Calm Calm - N/A   Partly Cloudy
7:52 PM 48.9 °F - 44.1 °F 83% 30.06 in 10.0 mi Calm Calm - N/A   Partly Cloudy
9:52 PM 57.0 °F - 41.0 °F 55% 30.08 in 10.0 mi West 5.8 mph 16.1 mph N/A   Overcast
10:52 PM 55.0 °F - 39.0 °F 55% 30.09 in 10.0 mi WNW 9.2 mph 19.6 mph N/A   Partly Cloudy
11:52 PM 54.0 °F - 37.9 °F 55% 30.11 in 10.0 mi WNW 10.4 mph 19.6 mph N/A   Clear